TimeEST,TemperatureF,Dew PointF,Humidity,Sea Level PressureIn,VisibilityMPH,Wind Direction,Wind SpeedMPH,Gust SpeedMPH,PrecipitationIn,Events,Conditions,WindDirDegrees,DateUTC
12:54 AM,34.0,34.0,100,29.92,0.2,Variable,5.8,-,N/A,Fog,Fog,0,2013-01-30 05:54:00
1:54 AM,35.1,35.1,100,29.89,0.2,ENE,10.4,-,N/A,Fog,Fog,70,2013-01-30 06:54:00
2:08 AM,37.4,37.4,100,29.87,0.5,East,8.1,-,N/A,Fog,Fog,90,2013-01-30 07:08:00
2:13 AM,37.4,37.4,100,29.86,1.0,East,8.1,-,N/A,,Overcast,90,2013-01-30 07:13:00
2:28 AM,35.6,35.6,100,29.86,0.5,ESE,4.6,-,N/A,Fog,Fog,110,2013-01-30 07:28:00
2:54 AM,36.0,36.0,100,29.86,0.8,Variable,5.8,-,N/A,,Overcast,0,2013-01-30 07:54:00
2:59 AM,35.6,35.6,100,29.84,1.0,East,9.2,-,N/A,,Overcast,80,2013-01-30 07:59:00
3:13 AM,39.2,37.4,93,29.84,2.0,Variable,6.9,-,N/A,,Mostly Cloudy,0,2013-01-30 08:13:00
3:23 AM,44.6,44.6,100,29.83,4.0,Calm,Calm,-,N/A,,Mostly Cloudy,0,2013-01-30 08:23:00
3:44 AM,39.2,39.2,100,29.82,2.0,ESE,5.8,-,N/A,,Overcast,110,2013-01-30 08:44:00
3:54 AM,42.1,42.1,100,29.83,3.0,ENE,12.7,18.4,N/A,,Overcast,60,2013-01-30 08:54:00
4:13 AM,37.4,37.4,100,29.82,2.0,SSE,5.8,-,N/A,,Overcast,150,2013-01-30 09:13:00
4:22 AM,37.4,37.4,100,29.81,1.5,SE,4.6,-,N/A,,Overcast,140,2013-01-30 09:22:00
4:54 AM,37.0,36.0,96,29.81,1.0,East,8.1,-,N/A,,Overcast,80,2013-01-30 09:54:00
5:14 AM,42.8,42.8,100,29.79,3.0,ENE,9.2,-,N/A,,Overcast,60,2013-01-30 10:14:00
5:22 AM,42.8,42.8,100,29.78,4.0,East,9.2,-,N/A,,Overcast,80,2013-01-30 10:22:00
5:54 AM,43.0,42.1,97,29.78,4.0,East,8.1,-,N/A,,Overcast,90,2013-01-30 10:54:00
6:20 AM,44.6,42.8,93,29.76,4.0,ENE,11.5,-,N/A,,Overcast,70,2013-01-30 11:20:00
6:54 AM,46.0,44.1,93,29.75,2.0,ENE,9.2,-,N/A,,Overcast,70,2013-01-30 11:54:00
7:24 AM,46.4,44.6,93,29.71,2.0,NE,12.7,20.7,N/A,,Overcast,50,2013-01-30 12:24:00
7:54 AM,48.9,46.9,93,29.72,2.0,ESE,10.4,18.4,N/A,,Overcast,120,2013-01-30 12:54:00
8:54 AM,50.0,48.0,93,29.69,3.0,SE,17.3,28.8,N/A,,Overcast,140,2013-01-30 13:54:00
9:54 AM,51.1,48.9,92,29.66,3.0,SSE,15.0,21.9,0.01,,Overcast,160,2013-01-30 14:54:00
10:54 AM,53.1,51.1,93,29.61,3.0,ESE,13.8,21.9,N/A,,Overcast,120,2013-01-30 15:54:00
11:54 AM,55.0,52.0,89,29.56,3.0,SE,15.0,27.6,0.01,,Overcast,130,2013-01-30 16:54:00
12:54 PM,55.9,53.1,90,29.53,7.0,North,6.9,-,N/A,,Overcast,360,2013-01-30 17:54:00
1:01 PM,57.2,53.6,88,29.54,6.0,Variable,6.9,-,N/A,,Overcast,0,2013-01-30 18:01:00
1:08 PM,57.2,53.6,88,29.53,6.0,South,10.4,-,N/A,,Overcast,180,2013-01-30 18:08:00
1:34 PM,55.4,53.6,94,29.51,5.0,South,13.8,21.9,0.00,,Overcast,190,2013-01-30 18:34:00
1:54 PM,61.0,55.0,81,29.52,10.0,West,9.2,24.2,0.01,,Overcast,280,2013-01-30 18:54:00
2:54 PM,52.0,51.1,97,29.54,2.5,East,3.5,-,0.00,Rain,Light Rain,100,2013-01-30 19:54:00
3:10 PM,50.0,48.2,94,29.54,1.0,ESE,5.8,-,0.01,Rain,Light Rain,120,2013-01-30 20:10:00
3:19 PM,50.0,50.0,100,29.54,0.8,SE,4.6,-,0.01,Rain,Light Rain,140,2013-01-30 20:19:00
3:39 PM,48.2,48.2,100,29.52,0.2,ESE,4.6,-,0.02,Fog-Rain,Light Rain,110,2013-01-30 20:39:00
3:52 PM,48.2,48.2,100,29.53,0.2,SE,3.5,-,0.03,Fog-Rain,Light Rain,140,2013-01-30 20:52:00
3:54 PM,48.9,48.9,100,29.54,0.2,Calm,Calm,-,0.03,Fog-Rain,Light Rain,0,2013-01-30 20:54:00
4:13 PM,48.2,48.2,100,29.54,0.2,SE,3.5,-,0.02,Fog-Rain,Light Rain,130,2013-01-30 21:13:00
4:22 PM,48.2,48.2,100,29.53,0.2,East,3.5,-,0.03,Fog-Rain,Light Rain,90,2013-01-30 21:22:00
4:54 PM,48.0,48.0,100,29.53,0.2,Calm,Calm,-,0.05,Fog-Rain,Rain,0,2013-01-30 21:54:00
5:01 PM,48.2,48.2,100,29.52,0.2,Calm,Calm,-,0.01,Fog-Rain,Light Rain,0,2013-01-30 22:01:00
5:22 PM,48.2,46.4,93,29.51,0.2,South,5.8,-,0.03,Fog-Rain,Light Rain,170,2013-01-30 22:22:00
5:31 PM,46.4,46.4,100,29.51,0.2,Calm,Calm,-,0.03,Fog-Rain,Light Rain,0,2013-01-30 22:31:00
5:42 PM,46.4,46.4,100,29.50,0.2,Calm,Calm,-,0.03,Fog-Rain,Light Rain,0,2013-01-30 22:42:00
5:49 PM,46.4,46.4,100,29.51,0.2,Calm,Calm,-,0.04,Fog-Rain,Light Rain,0,2013-01-30 22:49:00
5:54 PM,46.9,46.9,100,29.52,0.2,Calm,Calm,-,0.04,Fog-Rain,Light Rain,0,2013-01-30 22:54:00
5:59 PM,46.4,46.4,100,29.52,0.2,Calm,Calm,-,0.00,Fog-Rain,Light Rain,0,2013-01-30 22:59:00
6:06 PM,48.2,48.2,100,29.52,0.5,Calm,Calm,-,0.00,Fog-Rain,Rain,0,2013-01-30 23:06:00
6:13 PM,48.2,48.2,100,29.52,1.0,Calm,Calm,-,0.01,Rain,Rain,0,2013-01-30 23:13:00
6:24 PM,48.2,48.2,100,29.49,1.8,NE,5.8,-,0.03,Rain,Rain,40,2013-01-30 23:24:00
6:29 PM,51.8,50.0,94,29.49,3.0,Calm,Calm,-,0.04,Rain,Rain,0,2013-01-30 23:29:00
6:54 PM,54.0,53.1,97,29.49,10.0,Variable,4.6,-,0.07,Rain,Light Rain,0,2013-01-30 23:54:00
7:54 PM,55.0,54.0,96,29.45,7.0,South,11.5,-,0.08,Rain,Rain,170,2013-01-31 00:54:00
8:54 PM,55.0,53.1,93,29.40,5.0,SSE,15.0,25.3,0.14,Rain,Rain,150,2013-01-31 01:54:00
9:54 PM,55.0,52.0,89,29.34,5.0,SSE,16.1,25.3,0.13,Rain,Rain,150,2013-01-31 02:54:00
10:54 PM,55.0,52.0,89,29.25,7.0,SE,18.4,26.5,0.11,Rain,Rain,130,2013-01-31 03:54:00
11:25 PM,53.6,51.8,94,29.22,10.0,SE,17.3,23.0,0.03,Rain,Light Rain,140,2013-01-31 04:25:00
11:45 PM,53.6,51.8,94,29.19,7.0,SE,16.1,-,0.06,Rain,Rain,130,2013-01-31 04:45:00
11:54 PM,54.0,52.0,93,29.18,7.0,ESE,13.8,21.9,0.08,Rain,Rain,120,2013-01-31 04:54:00